Photometre #549[NE_1.6_Dp] Berlin_FUB AOT

File : 20200928_549.hum

28/09/2020,06:03:06,TEMP=9.7,BA=5.64,STAT.A=7.0,ExtBa=13.78
28/09/2020,06:16:54,TEMP=10.3,BA=5.60,STAT.A=7.0,ExtBa=13.76
28/09/2020,06:30:40,TEMP=10.8,BA=5.60,STAT.A=7.0,ExtBa=13.77
28/09/2020,06:44:27,TEMP=11.4,BA=5.60,STAT.A=7.0,ExtBa=13.78
28/09/2020,06:58:13,TEMP=12.4,BA=5.60,STAT.A=7.0,ExtBa=13.80
28/09/2020,07:12:01,TEMP=13.1,BA=5.60,STAT.A=7.0,ExtBa=13.80
28/09/2020,07:25:49,TEMP=13.9,BA=5.60,STAT.B=7.0,ExtBa=13.79
28/09/2020,07:48:21,TEMP=14.9,BA=5.60,STAT.A=7.0,ExtBa=13.38
28/09/2020,08:02:11,TEMP=15.5,BA=5.60,STAT.A=7.0,ExtBa=13.55
28/09/2020,08:15:58,TEMP=15.6,BA=5.60,STAT.A=7.0,ExtBa=13.67
28/09/2020,08:29:44,TEMP=16.3,BA=5.60,STAT.A=7.0,ExtBa=13.72
28/09/2020,08:31:49,TEMP=16.7,BA=5.60,STAT.C=7.0,ExtBa=13.67
28/09/2020,08:48:51,TEMP=16.7,BA=5.60,STAT.A=7.0,ExtBa=12.84
28/09/2020,08:50:56,TEMP=16.9,BA=5.60,STAT.A=7.0,ExtBa=12.87
28/09/2020,09:04:43,TEMP=17.2,BA=5.60,STAT.F,ExtBa=13.20
28/09/2020,09:21:39,TEMP=17.7,BA=5.56,STAT.D=7.0,ExtBa=12.66
28/09/2020,09:35:23,TEMP=17.8,BA=5.60,STAT.D=7.0,ExtBa=13.03
28/09/2020,09:49:07,TEMP=17.9,BA=5.60,STAT.D=7.0,ExtBa=13.24
28/09/2020,10:02:54,TEMP=18.1,BA=5.60,STAT.F,ExtBa=13.39
28/09/2020,10:43:02,TEMP=18.3,BA=5.60,STAT.D=7.0,ExtBa=13.28
28/09/2020,10:45:05,TEMP=18.8,BA=5.60,STAT.D=7.0,ExtBa=13.25
28/09/2020,10:58:47,TEMP=19.0,BA=5.60,STAT.D=7.0,ExtBa=13.41
28/09/2020,11:12:33,TEMP=19.4,BA=5.60,STAT.F,ExtBa=13.50
28/09/2020,11:41:27,TEMP=19.0,BA=5.60,STAT.D=7.0,ExtBa=13.13
28/09/2020,11:43:30,TEMP=19.2,BA=5.60,STAT.D=7.0,ExtBa=13.11
28/09/2020,11:45:33,TEMP=19.4,BA=5.60,STAT.D=7.0,ExtBa=13.09
28/09/2020,11:47:38,TEMP=19.5,BA=5.60,STAT.F,ExtBa=13.09
28/09/2020,12:17:12,TEMP=18.6,BA=5.60,STAT.D=7.0,ExtBa=13.06
28/09/2020,12:30:54,TEMP=19.1,BA=5.60,STAT.D=7.0,ExtBa=13.28
28/09/2020,12:44:44,TEMP=19.0,BA=5.60,STAT.D=7.0,ExtBa=13.38
28/09/2020,12:58:27,TEMP=20.2,BA=5.60,STAT.F,ExtBa=13.46
28/09/2020,13:22:41,TEMP=19.4,BA=5.60,STAT.D=7.0,ExtBa=13.21
28/09/2020,13:36:29,TEMP=19.1,BA=5.60,STAT.D=7.0,ExtBa=13.35
28/09/2020,13:50:11,TEMP=19.7,BA=5.60,STAT.D=7.0,ExtBa=13.45
28/09/2020,14:03:54,TEMP=20.2,BA=5.60,STAT.F,ExtBa=13.51
28/09/2020,14:32:43,TEMP=18.9,BA=5.60,STAT.D=7.0,ExtBa=13.14
28/09/2020,14:46:22,TEMP=17.9,BA=5.60,STAT.D=7.0,ExtBa=13.33
28/09/2020,15:00:01,TEMP=17.7,BA=5.60,STAT.D=7.0,ExtBa=13.44
28/09/2020,15:13:40,TEMP=18.3,BA=5.60,STAT.F,ExtBa=13.49
28/09/2020,15:37:45,TEMP=17.8,BA=5.60,STAT.A=7.0,ExtBa=13.20
28/09/2020,15:39:50,TEMP=18.2,BA=5.60,STAT.C=7.0,ExtBa=13.14
28/09/2020,15:52:22,TEMP=17.8,BA=5.52,STAT.A=7.0,ExtBa=12.80
28/09/2020,16:06:04,TEMP=16.6,BA=5.60,STAT.A=7.0,ExtBa=13.11
28/09/2020,16:19:46,TEMP=16.9,BA=5.60,STAT.A=7.0,ExtBa=13.28
28/09/2020,16:33:25,TEMP=16.9,BA=5.60,STAT.A=7.0,ExtBa=13.39
28/09/2020,16:35:32,TEMP=17.1,BA=5.60,STAT.A=7.0,ExtBa=13.34
28/09/2020,16:37:38,TEMP=17.1,BA=5.60,STAT.A=7.0,ExtBa=13.30
28/09/2020,16:51:18,TEMP=16.3,BA=5.60,STAT.A=7.0,ExtBa=13.42